This is the latest recevied weather packets stored in our database for station/object VE3MNX. If no packets are shown the sender has not sent any weather packets the latest 10 day(s).
| Time | Temp. | Humidity | Pressure | Rain* | Wind** | Luminosity | Snow |
|---|---|---|---|---|---|---|---|
| 1777936098 | 15° C | 82% | 998.8 hPa | 0 mm | - | - | - |
| 1777935198 | 13.89° C | 84% | 999.4 hPa | 0 mm | - | - | - |
| 1777934296 | 13.33° C | 85% | 999.7 hPa | 0 mm | - | - | - |
| 1777933399 | 13.33° C | 85% | 999.7 hPa | 0 mm | - | - | - |
| 1777932499 | 13.89° C | 85% | 1000 hPa | 0 mm | - | - | - |
| 1777931597 | 13.33° C | 86% | 1000.3 hPa | 0 mm | - | - | - |
| 1777930696 | 13.89° C | 84% | 1000.7 hPa | 0 mm | - | - | - |
| 1777929797 | 13.89° C | 84% | 1000.7 hPa | 0 mm | - | - | - |
| 1777928896 | 14.44° C | 84% | 1000.7 hPa | 0 mm | - | - | - |
| 1777927996 | 14.44° C | 83% | 1000.7 hPa | 0 mm | - | - | - |
| 1777927096 | 14.44° C | 82% | 1000.7 hPa | 0 mm | - | - | - |
| 1777926198 | 14.44° C | 80% | 1000.7 hPa | 0 mm | - | - | - |
| 1777925297 | 15° C | 80% | 1001 hPa | 0 mm | - | - | - |
| 1777924397 | 14.44° C | 80% | 1001 hPa | 0 mm | - | - | - |
| 1777923496 | 14.44° C | 80% | 1001.4 hPa | 0 mm | - | - | - |
| 1777922597 | 14.44° C | 80% | 1001.3 hPa | 0 mm | - | - | - |
| 1777921696 | 14.44° C | 82% | 1001.4 hPa | 0 mm | - | - | - |
| 1777920796 | 14.44° C | 84% | 1002 hPa | 0 mm | - | - | - |
| 1777919896 | 13.89° C | 88% | 1002.4 hPa | 0 mm | - | - | - |
| 1777918997 | 13.33° C | 86% | 1002.4 hPa | 0 mm | - | - | - |
| 1777918097 | 13.89° C | 85% | 1002.7 hPa | 0 mm | - | - | - |
| 1777917199 | 13.33° C | 86% | 1002.4 hPa | 0 mm | - | - | - |
| 1777916295 | 13.33° C | 86% | 1003 hPa | 0 mm | - | - | - |
| 1777915398 | 13.33° C | 86% | 1003 hPa | 0 mm | - | - | - |
| 1777914496 | 13.33° C | 88% | 1003 hPa | 0 mm | - | - | - |
* Rain latest hour (hover to see other rain measurements)
** Current wind speed in m/s (hover to see current wind gust speed)